Location: Peebles
(55.6412°N, 3.1714°W)
Time: 15:25:24
(UTC+01:00)

Cosmos 1782 Rocket - Pass Details

Date: 26 September 2021
Orbit: 605 x 633 km, 82.5° (Epoch: 17 October)

Event Time Altitude Azimuth Distance (km) Brightness Sun altitude
Rises 20:27:14 0° 186° (S) 2,904 6.9 -12.9°
Reaches altitude 10° 20:29:28 10° 186° (S) 1,997 6.1 -13.2°
Maximum altitude 20:33:53 79° 100° (E) 640 3.5 -13.8°
Drops below altitude 10° 20:38:18 10° 14° (NNE) 1,996 6.2 -14.4°
Sets 20:40:32 0° 13° (NNE) 2,902 7.1 -14.7°
